| time (UTC) | temp F | wind direction | speed knots | gust knots | rain 1hr in | rain 24hr in | rain mn in | humidity % | barometer mb |
| 20260505153059 | 60 | 278 | 6.1 | 11.3 | 0.00 | 0.00 | 0.00 | 52 | 1013.4 |
| 20260505152558 | 61 | 343 | 5.2 | 10.4 | 0.00 | 0.00 | 0.00 | 56 | 1013.4 |
| 20260505152058 | 61 | 360 | 4.3 | 10.4 | 0.00 | 0.00 | 0.00 | 55 | 1013.5 |
| 20260505151605 | 61 | 333 | 4.3 | 11.3 | 0.00 | 0.00 | 0.00 | 54 | 1013.3 |
| 20260505151101 | 61 | 346 | 4.3 | 11.3 | 0.00 | 0.00 | 0.00 | 53 | 1013.4 |
| 20260505150558 | 61 | 24 | 5.2 | 10.4 | 0.00 | 0.00 | 0.00 | 53 | 1013.4 |
| 20260505140558 | 62 | 335 | 4.3 | 9.6 | 0.00 | 0.00 | 0.00 | 52 | 1013.5 |
| 20260505140110 | 62 | 327 | 2.6 | 9.6 | 0.00 | 0.00 | 0.00 | 54 | 1013.5 |
| 20260505130110 | 63 | 352 | 4.3 | 8.7 | 0.00 | 0.00 | 0.00 | 53 | 1013.4 |
| 20260505124624 | 62 | 64 | 2.6 | 9.6 | 0.00 | 0.00 | 0.00 | 54 | 1013.6 |
| 20260505124058 | 62 | 326 | 5.2 | 9.6 | 0.00 | 0.00 | 0.00 | 52 | 1013.7 |
| 20260505123558 | 62 | 54 | 2.6 | 10.4 | 0.00 | 0.00 | 0.00 | 54 | 1013.6 |
| 20260505123117 | 63 | 57 | 5.2 | 10.4 | 0.00 | 0.00 | 0.00 | 53 | 1013.7 |
| 20260505122558 | 63 | 324 | 2.6 | 10.4 | 0.00 | 0.00 | 0.00 | 56 | 1013.8 |
| 20260505122059 | 63 | 315 | 2.6 | 11.3 | 0.00 | 0.00 | 0.00 | 53 | 1013.7 |
| 20260505121604 | 63 | 334 | 5.2 | 11.3 | 0.00 | 0.00 | 0.00 | 55 | 1013.7 |
| 20260505121059 | 63 | 320 | 4.3 | 11.3 | 0.00 | 0.00 | 0.00 | 53 | 1013.7 |
| 20260505120557 | 63 | 27 | 5.2 | 11.3 | 0.00 | 0.00 | 0.00 | 57 | 1013.7 |
| 20260505120124 | 63 | 360 | 4.3 | 11.3 | 0.00 | 0.00 | 0.00 | 54 | 1013.8 |
| 20260505115559 | 63 | 342 | 4.3 | 12.2 | 0.00 | 0.00 | 0.00 | 56 | 1013.7 |
| 20260505115059 | 63 | 11 | 7.0 | 12.2 | 0.00 | 0.00 | 0.00 | 53 | 1013.8 |
| 20260505114559 | 63 | 316 | 5.2 | 11.3 | 0.00 | 0.00 | 0.00 | 53 | 1013.9 |
| 20260505114059 | 62 | 327 | 2.6 | 13.0 | 0.00 | 0.00 | 0.00 | 55 | 1013.9 |
| 20260505113603 | 62 | 79 | 6.1 | 13.0 | 0.00 | 0.00 | 0.00 | 54 | 1013.9 |
| 20260505113104 | 62 | 302 | 6.1 | 10.4 | 0.00 | 0.00 | 0.00 | 56 | 1014.0 |
| 20260505112559 | 61 | 329 | 3.5 | 10.4 | 0.00 | 0.00 | 0.00 | 58 | 1014.0 |
| 20260505112059 | 60 | 5 | 4.3 | 10.4 | 0.00 | 0.00 | 0.00 | 59 | 1014.0 |
| 20260505111602 | 60 | 330 | 4.3 | 9.6 | 0.00 | 0.00 | 0.00 | 57 | 1014.2 |
| 20260505111059 | 60 | 5 | 2.6 | 9.6 | 0.00 | 0.00 | 0.00 | 57 | 1014.1 |
| 20260505110559 | 60 | 337 | 1.7 | 9.6 | 0.00 | 0.00 | 0.00 | 56 | 1014.3 |
| 20260505110112 | 60 | 34 | 5.2 | 12.2 | 0.00 | 0.00 | 0.00 | 58 | 1014.2 |
| 20260505102059 | 60 | 344 | 5.2 | 13.0 | 0.00 | 0.00 | 0.00 | 61 | 1014.4 |
| 20260505101603 | 60 | 5 | 7.0 | 13.0 | 0.00 | 0.00 | 0.00 | 59 | 1014.4 |
| 20260505101059 | 60 | 338 | 5.2 | 11.3 | 0.00 | 0.00 | 0.00 | 57 | 1014.4 |
| 20260505100559 | 60 | 42 | 5.2 | 11.3 | 0.00 | 0.00 | 0.00 | 59 | 1014.4 |
| 20260505100101 | 60 | 340 | 2.6 | 7.8 | 0.00 | 0.00 | 0.00 | 62 | 1014.2 |
| 20260505095558 | 60 | 121 | 2.6 | 8.7 | 0.00 | 0.03 | 0.00 | 58 | 1014.4 |
| 20260505095100 | 60 | 352 | 1.7 | 8.7 | 0.00 | 0.03 | 0.00 | 60 | 1014.5 |
| 20260505094559 | 60 | 5 | 3.5 | 11.3 | 0.00 | 0.03 | 0.00 | 60 | 1014.5 |
| 20260505094059 | 59 | 129 | 3.5 | 13.0 | 0.00 | 0.03 | 0.00 | 58 | 1014.5 |
| 20260505093559 | 60 | 42 | 5.2 | 14.8 | 0.00 | 0.03 | 0.00 | 60 | 1014.5 |
| 20260505093058 | 59 | 352 | 5.2 | 14.8 | 0.00 | 0.03 | 0.00 | 60 | 1014.5 |
| 20260505092600 | 60 | 346 | 7.0 | 14.8 | 0.00 | 0.03 | 0.00 | 60 | 1014.6 |
| 20260505092100 | 60 | 322 | 2.6 | 7.8 | 0.00 | 0.03 | 0.00 | 62 | 1014.5 |
| 20260505091600 | 59 | 65 | 3.5 | 8.7 | 0.00 | 0.03 | 0.00 | 62 | 1014.6 |
| 20260505091100 | 59 | 0 | 0.9 | 13.0 | 0.00 | 0.03 | 0.00 | 65 | 1014.5 |
| 20260505090559 | 58 | 9 | 0.9 | 13.0 | 0.00 | 0.03 | 0.00 | 65 | 1014.6 |
| 20260505090059 | 58 | 15 | 6.1 | 13.0 | 0.00 | 0.03 | 0.00 | 62 | 1014.7 |
| 20260505085559 | 58 | 306 | 5.2 | 10.4 | 0.00 | 0.03 | 0.00 | 65 | 1014.5 |
| 20260505085059 | 58 | 22 | 3.5 | 9.6 | 0.00 | 0.03 | 0.00 | 63 | 1014.6 |
| 20260505084605 | 58 | 325 | 1.7 | 9.6 | 0.00 | 0.03 | 0.00 | 64 | 1014.5 |
| 20260505084057 | 58 | 18 | 0.9 | 8.7 | 0.00 | 0.03 | 0.00 | 66 | 1014.6 |
| 20260505083557 | 57 | 52 | 3.5 | 8.7 | 0.00 | 0.03 | 0.00 | 68 | 1014.6 |
| 20260505083115 | 57 | 318 | 2.6 | 8.7 | 0.00 | 0.03 | 0.00 | 68 | 1014.6 |
| 20260505082605 | 56 | 340 | 2.6 | 8.7 | 0.00 | 0.03 | 0.00 | 68 | 1014.5 |
| 20260505082058 | 55 | 5 | 1.7 | 5.2 | 0.00 | 0.03 | 0.00 | 70 | 1014.5 |
| 20260505081608 | 54 | 341 | 1.7 | 4.3 | 0.00 | 0.03 | 0.00 | 71 | 1014.6 |
| 20260505081058 | 54 | 0 | 0.9 | 2.6 | 0.00 | 0.03 | 0.00 | 72 | 1014.6 |
| 20260505080557 | 53 | 88 | 0.0 | 3.5 | 0.00 | 0.03 | 0.00 | 75 | 1014.6 |
| 20260505080114 | 53 | 190 | 0.0 | 3.5 | 0.00 | 0.03 | 0.00 | 74 | 1014.6 |
| 20260505075557 | 53 | 16 | 0.9 | 8.7 | 0.00 | 0.03 | 0.00 | 74 | 1014.7 |
| 20260505075100 | 54 | 292 | 3.5 | 9.6 | 0.00 | 0.03 | 0.00 | 74 | 1014.6 |
| 20260505074558 | 54 | 302 | 2.6 | 9.6 | 0.00 | 0.03 | 0.00 | 73 | 1014.7 |
| 20260505074058 | 54 | 328 | 4.3 | 8.7 | 0.00 | 0.03 | 0.00 | 75 | 1014.6 |
| 20260505073559 | 54 | 26 | 3.5 | 8.7 | 0.00 | 0.03 | 0.00 | 75 | 1014.7 |
| 20260505073104 | 54 | 322 | 3.5 | 8.7 | 0.00 | 0.03 | 0.00 | 75 | 1014.7 |
| 20260505072557 | 53 | 352 | 2.6 | 7.0 | 0.00 | 0.03 | 0.00 | 78 | 1014.7 |
| 20260505072058 | 52 | 352 | 2.6 | 7.0 | 0.00 | 0.03 | 0.00 | 78 | 1014.6 |
| 20260505071606 | 52 | 323 | 1.7 | 5.2 | 0.00 | 0.03 | 0.00 | 80 | 1014.8 |
| 20260505071058 | 51 | 301 | 1.7 | 5.2 | 0.00 | 0.03 | 0.00 | 79 | 1014.7 |
| 20260505070558 | 51 | 19 | 2.6 | 5.2 | 0.00 | 0.03 | 0.00 | 80 | 1014.8 |
| 20260505070107 | 51 | 350 | 0.9 | 3.5 | 0.00 | 0.03 | 0.00 | 80 | 1014.9 |
| 20260505065558 | 51 | 316 | 1.7 | 3.5 | 0.00 | 0.03 | 0.00 | 79 | 1014.9 |
| 20260505065058 | 51 | 352 | 0.9 | 3.5 | 0.00 | 0.03 | 0.00 | 80 | 1014.9 |
| 20260505064702 | 51 | 286 | 0.0 | 3.5 | 0.00 | 0.03 | 0.00 | 81 | 1014.8 |
| 20260505064058 | 51 | 340 | 0.9 | 3.5 | 0.00 | 0.03 | 0.00 | 81 | 1014.6 |
| 20260505063558 | 51 | 26 | 0.9 | 7.0 | 0.00 | 0.03 | 0.00 | 81 | 1014.6 |
| 20260505063101 | 51 | 103 | 1.7 | 10.4 | 0.00 | 0.03 | 0.00 | 81 | 1014.5 |
| 20260505062558 | 51 | 61 | 0.0 | 10.4 | 0.00 | 0.03 | 0.00 | 81 | 1014.6 |
| 20260505062058 | 51 | 90 | 2.6 | 10.4 | 0.00 | 0.03 | 0.00 | 80 | 1014.5 |
| 20260505061600 | 51 | 277 | 0.9 | 7.0 | 0.00 | 0.03 | 0.00 | 84 | 1014.5 |
| 20260505061058 | 51 | 90 | 2.6 | 7.0 | 0.00 | 0.03 | 0.00 | 84 | 1014.3 |
| 20260505060606 | 51 | 127 | 0.0 | 2.6 | 0.00 | 0.03 | 0.00 | 85 | 1014.3 |
| 20260505060058 | 51 | 0 | 0.0 | 3.5 | 0.00 | 0.03 | 0.00 | 85 | 1014.4 |
| 20260505055558 | 51 | 0 | 0.9 | 5.2 | 0.00 | 0.03 | 0.00 | 85 | 1014.5 |
| 20260505055101 | 51 | 82 | 1.7 | 5.2 | 0.00 | 0.03 | 0.00 | 85 | 1014.5 |
| 20260505054558 | 50 | 98 | 1.7 | 6.1 | 0.00 | 0.03 | 0.00 | 85 | 1014.5 |
| 20260505054058 | 50 | 30 | 0.9 | 6.1 | 0.00 | 0.03 | 0.00 | 87 | 1014.4 |
| 20260505053558 | 50 | 71 | 0.0 | 6.1 | 0.00 | 0.03 | 0.00 | 87 | 1014.5 |
| 20260505053100 | 50 | 143 | 0.9 | 6.1 | 0.00 | 0.03 | 0.00 | 88 | 1014.3 |
| 20260505052559 | 50 | 330 | 0.9 | 4.3 | 0.00 | 0.03 | 0.00 | 88 | 1014.4 |
| 20260505052059 | 50 | 352 | 1.7 | 4.3 | 0.00 | 0.03 | 0.00 | 88 | 1014.4 |
| 20260505051558 | 50 | 0 | 0.0 | 2.6 | 0.00 | 0.03 | 0.00 | 88 | 1014.5 |
| 20260505051059 | 50 | 217 | 0.0 | 4.3 | 0.00 | 0.03 | 0.00 | 87 | 1014.6 |
| 20260505050559 | 50 | 166 | 0.0 | 6.1 | 0.00 | 0.03 | 0.00 | 87 | 1014.5 |
| 20260505050110 | 50 | 66 | 1.7 | 6.1 | 0.00 | 0.03 | 0.00 | 87 | 1014.5 |
| 20260505041607 | 49 | 328 | 0.9 | 3.5 | 0.00 | 0.03 | 0.00 | 89 | 1014.5 |
| 20260505041057 | 49 | 0 | 0.9 | 3.5 | 0.00 | 0.03 | 0.00 | 88 | 1014.5 |
| 20260505040557 | 49 | 360 | 0.9 | 3.5 | 0.00 | 0.03 | 0.00 | 88 | 1014.5 |
| 20260505040106 | 49 | 13 | 0.9 | 4.3 | 0.00 | 0.03 | 0.00 | 88 | 1014.4 |
| 20260505035601 | 49 | 352 | 1.7 | 4.3 | 0.00 | 0.03 | 0.00 | 88 | 1014.4 |
| 20260505035057 | 49 | 352 | 0.0 | 6.1 | 0.00 | 0.03 | 0.00 | 88 | 1014.3 |
| 20260505034613 | 49 | 352 | 1.7 | 6.1 | 0.00 | 0.03 | 0.00 | 88 | 1014.2 |
| 20260505034058 | 49 | 59 | 2.6 | 6.1 | 0.00 | 0.03 | 0.00 | 88 | 1014.3 |
| 20260505033557 | 49 | 28 | 0.9 | 7.0 | 0.00 | 0.03 | 0.00 | 88 | 1014.4 |
| 20260505033108 | 49 | 69 | 2.6 | 7.0 | 0.00 | 0.03 | 0.00 | 88 | 1014.4 |
| 20260505032557 | 49 | 48 | 2.6 | 6.1 | 0.00 | 0.03 | 0.00 | 89 | 1014.3 |
| 20260505032056 | 48 | 47 | 0.9 | 3.5 | 0.00 | 0.03 | 0.00 | 90 | 1014.2 |
| 20260505031607 | 48 | 352 | 0.9 | 4.3 | 0.00 | 0.03 | 0.00 | 91 | 1014.4 |
| 20260505031056 | 48 | 0 | 1.7 | 4.3 | 0.00 | 0.03 | 0.00 | 91 | 1014.3 |
| 20260505030600 | 48 | 18 | 0.9 | 1.7 | 0.00 | 0.03 | 0.00 | 90 | 1014.4 |
| 20260505030119 | 48 | 40 | 0.0 | 2.6 | 0.00 | 0.03 | 0.00 | 90 | 1014.3 |
| 20260505025558 | 48 | 40 | 0.9 | 2.6 | 0.00 | 0.03 | 0.00 | 90 | 1014.3 |
| 20260505025058 | 48 | 0 | 0.9 | 2.6 | 0.00 | 0.03 | 0.00 | 90 | 1014.4 |
| 20260505024612 | 48 | 53 | 0.9 | 2.6 | 0.00 | 0.03 | 0.00 | 90 | 1014.5 |
| 20260505024057 | 49 | 10 | 0.9 | 3.5 | 0.00 | 0.03 | 0.00 | 90 | 1014.5 |
| 20260505023558 | 49 | 51 | 0.9 | 3.5 | 0.00 | 0.03 | 0.00 | 91 | 1014.5 |
| 20260505023057 | 49 | 26 | 1.7 | 2.6 | 0.00 | 0.03 | 0.00 | 90 | 1014.6 |
| 20260505022601 | 49 | 28 | 0.9 | 2.6 | 0.00 | 0.03 | 0.00 | 91 | 1014.5 |
| 20260505022058 | 49 | 0 | 0.9 | 3.5 | 0.00 | 0.03 | 0.00 | 91 | 1014.7 |
| 20260505021557 | 49 | 11 | 1.7 | 3.5 | 0.00 | 0.03 | 0.00 | 91 | 1014.6 |
| 20260505021057 | 49 | 37 | 1.7 | 3.5 | 0.00 | 0.03 | 0.00 | 90 | 1014.7 |
| 20260505020558 | 49 | 54 | 0.9 | 2.6 | 0.00 | 0.03 | 0.00 | 90 | 1014.8 |
| 20260505020107 | 49 | 60 | 1.7 | 2.6 | 0.00 | 0.03 | 0.00 | 90 | 1014.8 |
| 20260505015557 | 49 | 52 | 1.7 | 2.6 | 0.00 | 0.03 | 0.00 | 90 | 1014.7 |
| 20260505015100 | 49 | 53 | 1.7 | 3.5 | 0.00 | 0.03 | 0.00 | 90 | 1014.7 |
| 20260505014556 | 49 | 59 | 0.9 | 3.5 | 0.00 | 0.03 | 0.00 | 90 | 1014.7 |
| 20260505014056 | 50 | 63 | 1.7 | 3.5 | 0.00 | 0.03 | 0.00 | 90 | 1014.8 |
| 20260505013557 | 50 | 55 | 1.7 | 3.5 | 0.00 | 0.03 | 0.00 | 90 | 1014.9 |
| 20260505013058 | 50 | 46 | 0.9 | 3.5 | 0.00 | 0.03 | 0.00 | 89 | 1014.7 |
| 20260505012600 | 50 | 42 | 1.7 | 2.6 | 0.00 | 0.03 | 0.00 | 89 | 1014.7 |
| 20260505012057 | 50 | 58 | 0.9 | 2.6 | 0.00 | 0.03 | 0.00 | 90 | 1014.7 |
| 20260505011601 | 50 | 43 | 0.9 | 3.5 | 0.00 | 0.03 | 0.00 | 90 | 1014.8 |
| 20260505011058 | 50 | 42 | 1.7 | 3.5 | 0.00 | 0.03 | 0.00 | 90 | 1014.8 |
| 20260505010558 | 50 | 40 | 1.7 | 3.5 | 0.00 | 0.03 | 0.00 | 90 | 1014.8 |
| 20260505010110 | 50 | 42 | 1.7 | 2.6 | 0.00 | 0.03 | 0.00 | 90 | 1014.9 |
| 20260505005559 | 50 | 49 | 0.9 | 2.6 | 0.00 | 0.03 | 0.00 | 89 | 1015.0 |
| 20260505005059 | 50 | 49 | 0.9 | 1.7 | 0.00 | 0.03 | 0.00 | 89 | 1014.9 |
| 20260505004631 | 50 | 49 | 0.9 | 2.6 | 0.00 | 0.03 | 0.00 | 89 | 1014.9 |
| 20260505004057 | 50 | 49 | 0.9 | 2.6 | 0.00 | 0.03 | 0.00 | 89 | 1014.9 |
| 20260505003558 | 51 | 44 | 0.9 | 2.6 | 0.00 | 0.03 | 0.00 | 88 | 1015.0 |
| 20260505003101 | 51 | 44 | 0.9 | 1.7 | 0.00 | 0.03 | 0.00 | 88 | 1015.1 |
| 20260505002600 | 51 | 9 | 0.0 | 1.7 | 0.00 | 0.03 | 0.00 | 87 | 1015.0 |
| 20260505002059 | 52 | 9 | 0.0 | 0.9 | 0.00 | 0.03 | 0.00 | 87 | 1015.0 |
| 20260505001558 | 52 | 0 | 0.0 | 1.7 | 0.00 | 0.03 | 0.00 | 86 | 1015.0 |
| 20260505001058 | 52 | 9 | 0.0 | 1.7 | 0.00 | 0.03 | 0.00 | 87 | 1015.1 |
| 20260505000558 | 53 | 0 | 0.0 | 2.6 | 0.00 | 0.03 | 0.00 | 86 | 1014.9 |
| 20260505000113 | 53 | 42 | 0.0 | 4.3 | 0.00 | 0.03 | 0.00 | 87 | 1015.1 |
| 20260504235557 | 53 | 41 | 0.9 | 4.3 | 0.00 | 0.03 | 0.00 | 87 | 1015.0 |
| 20260504235058 | 53 | 34 | 0.9 | 2.6 | 0.00 | 0.03 | 0.00 | 88 | 1014.9 |
| 20260504234559 | 53 | 352 | 1.7 | 2.6 | 0.00 | 0.03 | 0.00 | 88 | 1015.0 |
| 20260504234058 | 53 | 30 | 0.9 | 2.6 | 0.00 | 0.03 | 0.00 | 87 | 1015.0 |
| 20260504233559 | 53 | 55 | 0.9 | 2.6 | 0.00 | 0.03 | 0.00 | 89 | 1015.2 |
| 20260504233108 | 53 | 0 | 0.9 | 2.6 | 0.00 | 0.03 | 0.00 | 89 | 1014.9 |
| 20260504232558 | 53 | 0 | 0.0 | 2.6 | 0.00 | 0.03 | 0.00 | 89 | 1015.1 |
| 20260504232057 | 52 | 0 | 0.9 | 2.6 | 0.00 | 0.03 | 0.00 | 90 | 1015.1 |
| 20260504231626 | 52 | 0 | 0.0 | 0.9 | 0.00 | 0.03 | 0.00 | 90 | 1015.1 |
| 20260504231057 | 52 | 0 | 0.0 | 0.9 | 0.00 | 0.03 | 0.00 | 88 | 1015.1 |
| 20260504230600 | 52 | 0 | 0.0 | 0.9 | 0.00 | 0.03 | 0.00 | 86 | 1015.2 |
| 20260504230100 | 53 | 49 | 0.0 | 0.9 | 0.00 | 0.03 | 0.00 | 85 | 1015.1 |
| 20260504225559 | 53 | 0 | 0.0 | 1.7 | 0.00 | 0.03 | 0.03 | 87 | 1015.1 |
| 20260504225057 | 53 | 0 | 0.0 | 1.7 | 0.00 | 0.03 | 0.03 | 88 | 1015.1 |
| 20260504224620 | 53 | 49 | 0.9 | 1.7 | 0.00 | 0.03 | 0.03 | 88 | 1015.1 |
| 20260504224103 | 53 | 0 | 0.0 | 1.7 | 0.00 | 0.03 | 0.03 | 88 | 1015.2 |
| 20260504223557 | 53 | 0 | 0.0 | 1.7 | 0.00 | 0.03 | 0.03 | 88 | 1015.1 |
| 20260504223104 | 53 | 0 | 0.0 | 1.7 | 0.00 | 0.03 | 0.03 | 88 | 1015.2 |
| 20260504222559 | 53 | 49 | 0.9 | 1.7 | 0.00 | 0.03 | 0.03 | 87 | 1015.1 |
| 20260504222101 | 53 | 49 | 0.0 | 1.7 | 0.00 | 0.03 | 0.03 | 87 | 1015.1 |
| 20260504221646 | 53 | 49 | 0.9 | 1.7 | 0.00 | 0.03 | 0.03 | 87 | 1015.2 |
| 20260504221058 | 53 | 49 | 0.9 | 1.7 | 0.00 | 0.03 | 0.03 | 87 | 1015.2 |
| 20260504220558 | 54 | 0 | 0.0 | 1.7 | 0.00 | 0.03 | 0.03 | 86 | 1015.1 |
| 20260504215558 | 54 | 49 | 0.0 | 1.7 | 0.00 | 0.03 | 0.03 | 85 | 1015.1 |
| 20260504215059 | 54 | 0 | 0.9 | 2.6 | 0.00 | 0.03 | 0.03 | 85 | 1015.2 |
| 20260504214603 | 55 | 49 | 0.9 | 2.6 | 0.00 | 0.03 | 0.03 | 85 | 1015.1 |
| 20260504214100 | 55 | 60 | 0.9 | 2.6 | 0.00 | 0.03 | 0.03 | 84 | 1015.1 |
| 20260504213557 | 55 | 0 | 0.0 | 0.0 | 0.00 | 0.03 | 0.03 | 84 | 1015.1 |
| 20260504213103 | 56 | 0 | 0.0 | 0.0 | 0.00 | 0.03 | 0.03 | 84 | 1015.1 |
| 20260504212601 | 56 | 0 | 0.0 | 0.0 | 0.00 | 0.03 | 0.03 | 84 | 1015.3 |
| 20260504212057 | 56 | 0 | 0.0 | 0.0 | 0.00 | 0.03 | 0.03 | 83 | 1015.2 |
| 20260504211559 | 56 | 0 | 0.0 | 0.0 | 0.00 | 0.03 | 0.03 | 83 | 1015.2 |
| 20260504211058 | 56 | 0 | 0.0 | 0.0 | 0.00 | 0.03 | 0.03 | 83 | 1015.2 |
| 20260504210558 | 56 | 0 | 0.0 | 0.0 | 0.00 | 0.03 | 0.03 | 83 | 1015.2 |
| 20260504210100 | 56 | 0 | 0.0 | 0.0 | 0.00 | 0.03 | 0.03 | 83 | 1015.3 |
| 20260504205604 | 56 | 0 | 0.0 | 0.0 | 0.00 | 0.03 | 0.03 | 82 | 1015.3 |
| 20260504205058 | 57 | 0 | 0.0 | 0.0 | 0.00 | 0.03 | 0.03 | 81 | 1015.2 |
| 20260504204600 | 57 | 0 | 0.0 | 0.0 | 0.00 | 0.03 | 0.03 | 81 | 1015.2 |
| 20260504204101 | 57 | 0 | 0.0 | 3.5 | 0.00 | 0.03 | 0.03 | 80 | 1015.2 |
| 20260504203601 | 57 | 0 | 0.0 | 3.5 | 0.00 | 0.03 | 0.03 | 80 | 1015.2 |
| 20260504203100 | 57 | 101 | 0.9 | 1.7 | 0.00 | 0.03 | 0.03 | 80 | 1015.1 |
| 20260504202558 | 57 | 0 | 0.0 | 1.7 | 0.00 | 0.03 | 0.03 | 80 | 1015.1 |
| 20260504202058 | 57 | 92 | 0.0 | 2.6 | 0.00 | 0.03 | 0.03 | 80 | 1015.1 |
| 20260504201607 | 57 | 0 | 0.0 | 2.6 | 0.00 | 0.03 | 0.03 | 79 | 1015.0 |
| 20260504201057 | 58 | 0 | 0.0 | 2.6 | 0.00 | 0.03 | 0.03 | 79 | 1014.9 |
| 20260504200557 | 58 | 69 | 0.9 | 2.6 | 0.00 | 0.03 | 0.03 | 79 | 1015.0 |
| 20260504195558 | 58 | 76 | 0.9 | 6.1 | 0.00 | 0.03 | 0.03 | 78 | 1014.8 |
| 20260504195057 | 58 | 74 | 0.9 | 6.1 | 0.00 | 0.03 | 0.03 | 78 | 1014.7 |
| 20260504194604 | 58 | 93 | 1.7 | 6.1 | 0.00 | 0.03 | 0.03 | 77 | 1014.7 |
| 20260504194059 | 58 | 92 | 1.7 | 3.5 | 0.00 | 0.03 | 0.03 | 77 | 1014.6 |
| 20260504193601 | 59 | 82 | 0.9 | 5.2 | 0.00 | 0.03 | 0.03 | 77 | 1014.6 |
| 20260504193100 | 59 | 0 | 0.0 | 5.2 | 0.00 | 0.03 | 0.03 | 76 | 1014.6 |
| 20260504192558 | 59 | 94 | 1.7 | 5.2 | 0.00 | 0.03 | 0.03 | 75 | 1014.6 |
| 20260504192059 | 59 | 84 | 0.9 | 5.2 | 0.00 | 0.03 | 0.03 | 75 | 1014.5 |
| 20260504191622 | 59 | 82 | 1.7 | 5.2 | 0.00 | 0.03 | 0.03 | 75 | 1014.5 |
| 20260504191058 | 59 | 0 | 0.0 | 3.5 | 0.00 | 0.03 | 0.03 | 76 | 1014.5 |
| 20260504190558 | 60 | 0 | 0.9 | 5.2 | 0.00 | 0.03 | 0.03 | 75 | 1014.5 |
| 20260504190110 | 60 | 80 | 0.9 | 5.2 | 0.00 | 0.03 | 0.03 | 75 | 1014.3 |
| 20260504185557 | 60 | 86 | 0.9 | 3.5 | 0.00 | 0.03 | 0.03 | 75 | 1014.4 |
| 20260504185057 | 60 | 0 | 0.9 | 4.3 | 0.00 | 0.03 | 0.03 | 74 | 1014.4 |
| 20260504184609 | 60 | 107 | 0.9 | 6.1 | 0.00 | 0.03 | 0.03 | 75 | 1014.4 |
| 20260504184058 | 60 | 51 | 0.9 | 6.1 | 0.00 | 0.03 | 0.03 | 74 | 1014.2 |
| 20260504183558 | 61 | 104 | 1.7 | 6.1 | 0.00 | 0.03 | 0.03 | 75 | 1014.2 |
| 20260504183057 | 61 | 127 | 1.7 | 6.1 | 0.00 | 0.03 | 0.03 | 73 | 1014.2 |
| 20260504182602 | 61 | 72 | 1.7 | 6.1 | 0.00 | 0.03 | 0.03 | 73 | 1014.2 |
| 20260504182058 | 61 | 104 | 2.6 | 5.2 | 0.00 | 0.03 | 0.03 | 73 | 1014.2 |
| 20260504181606 | 61 | 0 | 0.9 | 5.2 | 0.00 | 0.03 | 0.03 | 73 | 1014.2 |
| 20260504181058 | 61 | 108 | 1.7 | 7.0 | 0.00 | 0.03 | 0.03 | 72 | 1014.1 |
| 20260504180558 | 61 | 55 | 2.6 | 7.0 | 0.00 | 0.03 | 0.03 | 72 | 1014.0 |
| 20260504180100 | 61 | 26 | 2.6 | 7.0 | 0.00 | 0.03 | 0.03 | 72 | 1013.9 |
| 20260504175557 | 61 | 49 | 3.5 | 9.6 | 0.00 | 0.05 | 0.03 | 71 | 1014.0 |
| 20260504175058 | 61 | 24 | 4.3 | 9.6 | 0.00 | 0.05 | 0.03 | 70 | 1013.9 |
| 20260504174601 | 62 | 63 | 4.3 | 7.8 | 0.00 | 0.05 | 0.03 | 70 | 1014.0 |
| 20260504174058 | 62 | 36 | 5.2 | 10.4 | 0.00 | 0.05 | 0.03 | 71 | 1014.0 |
| 20260504173600 | 62 | 46 | 6.1 | 10.4 | 0.00 | 0.05 | 0.03 | 70 | 1014.0 |
| 20260504173104 | 62 | 69 | 3.5 | 8.7 | 0.00 | 0.05 | 0.03 | 72 | 1013.9 |
| 20260504172602 | 61 | 76 | 2.6 | 8.7 | 0.00 | 0.05 | 0.03 | 72 | 1013.9 |
| 20260504172103 | 61 | 64 | 4.3 | 8.7 | 0.00 | 0.05 | 0.03 | 72 | 1013.9 |
| 20260504171601 | 61 | 90 | 2.6 | 9.6 | 0.00 | 0.05 | 0.03 | 71 | 1014.0 |
| 20260504171100 | 62 | 72 | 4.3 | 10.4 | 0.00 | 0.05 | 0.03 | 70 | 1013.8 |
| 20260504170600 | 62 | 69 | 5.2 | 10.4 | 0.00 | 0.05 | 0.03 | 70 | 1013.7 |